Probability
0 0 0 0 0 0 0 0 0 0 0 0 0 3 10 10 13 13 26 29 26 19 16 16 19 23 26 23 29 29 29 29 29 19 16 19 19 19 23 16 16 16 13 10
0 0 0 0 0 0 0 3 3 0 0 0 0 10 13 10 13 23 26 32 26 19 19 16 16 19 19 23 26 29 29 26 23 19 19 23 23 23 23 23 19 13 13 13
0 0 0 0 0 0 0 3 0 0 0 0 6 10 10 13 16 19 29 29 32 26 19 19 19 16 19 19 23 23 23 19 19 16 16 16 23 23 23 23 23 16 13 10
0 0 0 0 0 0 0 0 0 0 3 3 6 10 10 19 16 19 19 19 26 26 23 19 19 16 19 13 19 16 19 19 19 16 16 13 13 16 19 23 16 16 13 13
0 0 0 0 0 0 0 0 0 3 3 6 10 3 6 10 13 16 16 13 19 23 19 19 19 19 19 16 19 16 16 16 19 16 16 16 13 13 13 10 13 13 16 13
0 0 0 0 0 0 3 3 3 3 3 10 10 10 6 6 13 10 13 23 19 26 23 23 23 19 16 13 16 16 16 16 16 16 16 16 16 13 6 10 10 13 13 13
0 0 0 0 0 0 3 3 3 6 6 10 6 3 6 6 13 10 13 16 23 26 19 19 16 19 19 16 16 16 13 16 16 13 13 16 13 10 10 10 13 16 16 16
0 0 0 0 3 0 0 3 3 3 3 6 6 6 10 13 13 10 13 13 16 19 19 16 19 16 16 13 13 16 16 13 13 10 13 10 13 10 10 13 10 10 19 19
0 0 0 0 0 0 3 3 3 0 0 6 10 13 13 10 10 10 10 10 13 13 13 16 19 16 13 13 13 13 13 16 16 13 10 6 6 10 10 10 13 13 13 16
6 6 6 3 3 6 3 3 3 0 0 6 10 16 10 6 10 10 6 6 13 16 13 16 16 19 16 13 13 13 13 13 13 13 6 6 6 6 6 10 13 13 13 13
6 6 6 6 6 10 10 3 3 3 3 3 6 10 6 6 10 10 6 10 16 16 13 13 13 13 19 13 16 13 13 13 13 10 6 6 6 6 6 6 10 10 10 10
3 3 3 6 6 3 6 6 6 6 6 6 6 10 0 3 3 0 0 3 6 10 13 10 6 6 13 16 23 19 16 13 10 10 6 6 6 3 3 3 3 3 6 10
0 3 0 3 3 3 0 0 3 6 6 3 6 6 3 0 0 0 0 6 6 3 6 6 10 13 16 13 16 16 10 10 10 6 6 3 3 6 3 3 0 0 0 0
3 3 6 3 3 0 0 0 3 3 3 3 6 6 3 3 3 3 6 6 6 6 6 3 3 10 13 16 13 10 10 10 10 10 6 3 0 0 0 0 0 0 0 0
0 0 0 0 0 0 0 3 3 3 3 3 6 3 3 3 6 10 6 6 3 3 3 3 3 10 13 10 10 10 10 10 10 6 6 6 6 3 3 0 0 0 0 0
0 0 0 0 0 0 0 0 3 3 3 3 0 3 3 3 3 3 0 3 3 3 0 3 3 10 10 10 10 10 10 10 6 6 6 3 3 3 3 0 0 0 0 0
0 0 0 3 0 0 0 0 0 3 3 3 0 3 3 6 6 3 3 0 3 3 0 0 6 10 10 10 13 16 10 3 3 3 3 0 0 0 0 0 0 0 0 0
0 0 0 3 3 0 0 0 0 0 3 3 0 3 3 3 3 3 3 3 6 3 3 0 3 6 6 6 6 3 0 0 0 0 0 3 0 0 0 0 0 0 0 0
0 0 0 0 3 0 0 0 0 0 0 3 0 0 0 3 3 3 3 6 6 6 6 6 6 6 3 0 0 0 0 0 0 0 0 0 0 0 0 0 0 0 0 0
0 0 0 0 0 3 0 0 0 0 0 3 0 0 0 0 0 0 3 6 6 3 3 3 3 0 0 0 0 0 0 0 0 0 0 0 0 0 0 0 0 0 0 0
0 0 0 0 0 3 3 0 0 0 0 3 0 0 0 0 0 0 0 0 0 0 0 0 0 0 0 0 0 0 0 0 0 0 0 0 0 0 0 0 0 0 0 0
0 0 0 0 0 0 0 0 0 0 0 0 3 0 0 0 0 0 0 0 0 0 0 0 0 0 0 0 0 0 0 0 0 0 0 0 0 0 0 0 0 0 0 0
0 0 0 0 0 0 0 0 0 0 0 0 0 0 0 0 0 0 0 0 0 0 0 0 0 0 0 0 0 0 0 0 0 0 0 0 0 0 0 0 0 0 0 0
0 0 0 0 0 0 0 0 0 0 0 0 0 0 0 0 0 0 0 0 0 0 0 0 0 0 0 0 0 0 0 0 0 0 0 0 0 0 0 0 0 0 0 0
0 0 0 0 0 0 0 0 0 0 0 0 0 0 0 0 0 0 0 0 0 0 0 0 0 0 0 0 0 0 0 0 0 0 0 0 0 0 0 0 0 0 0 0
0 0 0 0 0 0 0 0 0 0 0 0 0 0 0 0 0 0 0 0 0 0 0 0 0 0 0 0 0 0 0 0 0 0 0 0 0 0 0 0 0 0 0 0
0 0 0 0 0 0 0 0 0 0 0 0 0 0 0 0 0 0 0 0 0 0 0 0 0 0 0 0 0 0 0 0 0 0 0 0 0 0 0 0 0 0 0 0
Height
5866 5867 5868 5868 5869 5870 5871 5871 5871 5871 5870 5871 5871 5872 5872 5871 5871 5870 5868 5867 5865 5863 5860 5858 5856 5854 5852 5849 5847 5845 5843 5841 5839 5837 5835 5833 5832 5830 5829 5827 5826 5824 5823 5821
5859 5860 5860 5862 5863 5864 5864 5864 5864 5865 5865 5866 5866 5866 5866 5865 5865 5864 5862 5861 5859 5857 5855 5853 5851 5849 5846 5843 5841 5839 5837 5835 5833 5831 5829 5827 5826 5824 5822 5821 5819 5818 5816 5814
5852 5853 5853 5855 5857 5857 5857 5857 5858 5858 5860 5859 5859 5859 5859 5858 5858 5857 5856 5855 5853 5851 5849 5847 5845 5843 5840 5837 5835 5832 5830 5828 5826 5825 5823 5821 5820 5818 5816 5814 5813 5811 5809 5808
5843 5846 5846 5850 5849 5849 5850 5850 5851 5851 5852 5853 5853 5853 5852 5852 5851 5850 5850 5849 5847 5845 5843 5841 5839 5836 5834 5831 5829 5827 5824 5822 5820 5818 5816 5815 5813 5811 5810 5808 5806 5804 5802 5801
5836 5836 5838 5840 5841 5842 5843 5843 5844 5844 5845 5845 5846 5845 5845 5845 5844 5843 5843 5842 5840 5838 5836 5834 5832 5830 5827 5825 5823 5821 5819 5817 5814 5812 5810 5808 5806 5804 5802 5800 5799 5797 5795 5794
5827 5828 5829 5833 5834 5834 5836 5835 5837 5837 5838 5838 5838 5839 5839 5837 5836 5836 5836 5835 5833 5831 5829 5827 5825 5823 5820 5818 5816 5814 5812 5810 5808 5806 5804 5802 5799 5797 5795 5793 5791 5789 5788 5786
5819 5820 5821 5823 5824 5826 5828 5829 5830 5829 5830 5830 5831 5831 5832 5830 5829 5829 5829 5828 5826 5824 5822 5820 5818 5816 5813 5811 5809 5807 5805 5803 5801 5799 5797 5794 5792 5790 5788 5786 5784 5782 5780 5779
5811 5812 5815 5815 5816 5818 5818 5819 5820 5821 5822 5822 5823 5823 5823 5823 5822 5821 5821 5821 5819 5817 5815 5813 5810 5808 5806 5804 5802 5800 5798 5796 5794 5792 5790 5787 5785 5783 5781 5778 5777 5775 5773 5772
5804 5806 5807 5807 5808 5808 5809 5811 5812 5813 5814 5815 5815 5815 5815 5815 5814 5814 5813 5812 5811 5810 5808 5806 5803 5801 5799 5797 5795 5793 5791 5789 5787 5784 5782 5780 5778 5775 5773 5771 5769 5768 5766 5765
5796 5797 5798 5799 5800 5800 5801 5802 5803 5804 5805 5806 5807 5807 5806 5807 5806 5806 5805 5804 5803 5802 5800 5799 5796 5794 5792 5790 5788 5786 5784 5781 5779 5777 5775 5772 5770 5768 5766 5763 5762 5760 5758 5757
5787 5789 5789 5790 5791 5792 5793 5794 5794 5796 5797 5797 5798 5798 5798 5798 5798 5798 5797 5796 5795 5794 5793 5791 5789 5787 5785 5783 5781 5779 5777 5774 5771 5769 5767 5764 5762 5760 5758 5756 5754 5752 5751 5749
5780 5781 5782 5783 5783 5784 5784 5785 5786 5787 5788 5789 5789 5789 5789 5790 5790 5789 5789 5788 5787 5785 5784 5782 5781 5779 5778 5776 5774 5772 5769 5767 5764 5762 5760 5757 5754 5752 5750 5748 5746 5744 5742 5741
5772 5773 5774 5774 5775 5775 5776 5776 5777 5777 5778 5779 5780 5780 5780 5781 5781 5780 5780 5779 5778 5776 5775 5774 5773 5772 5770 5768 5766 5764 5762 5760 5758 5755 5753 5750 5748 5745 5744 5741 5739 5737 5735 5734
5763 5764 5765 5766 5766 5766 5767 5767 5768 5769 5769 5770 5770 5771 5771 5771 5771 5771 5770 5769 5768 5768 5767 5766 5765 5764 5762 5761 5759 5757 5755 5753 5751 5749 5746 5744 5741 5739 5737 5734 5732 5730 5729 5727
5755 5756 5756 5756 5757 5757 5757 5758 5759 5760 5760 5761 5762 5762 5762 5762 5762 5762 5761 5760 5759 5759 5758 5758 5757 5756 5755 5753 5752 5750 5748 5747 5744 5742 5740 5737 5735 5733 5730 5728 5726 5724 5722 5721
5747 5747 5747 5747 5747 5748 5748 5749 5750 5751 5751 5751 5752 5753 5753 5753 5753 5753 5752 5752 5751 5751 5750 5750 5750 5749 5748 5746 5745 5743 5742 5740 5738 5735 5733 5731 5729 5726 5724 5721 5719 5717 5716 5714
5738 5738 5738 5738 5739 5739 5740 5740 5740 5741 5741 5742 5743 5743 5744 5744 5744 5744 5744 5744 5743 5743 5743 5742 5742 5741 5740 5739 5738 5736 5735 5733 5731 5729 5726 5724 5722 5719 5717 5714 5712 5710 5709 5708
5730 5730 5730 5730 5730 5731 5731 5731 5731 5731 5731 5732 5733 5734 5734 5735 5735 5736 5736 5736 5736 5735 5735 5735 5735 5734 5733 5732 5731 5730 5728 5727 5725 5722 5720 5717 5715 5713 5710 5708 5706 5705 5703 5701
5721 5721 5721 5721 5722 5722 5722 5722 5722 5723 5723 5723 5724 5725 5725 5726 5727 5727 5727 5727 5727 5728 5728 5727 5727 5727 5727 5726 5725 5723 5722 5720 5719 5716 5714 5711 5709 5706 5704 5702 5700 5699 5697 5695
5713 5713 5713 5713 5713 5714 5714 5714 5714 5715 5715 5715 5716 5717 5717 5718 5718 5719 5719 5719 5720 5720 5720 5720 5720 5720 5720 5719 5718 5717 5716 5714 5713 5710 5708 5706 5703 5701 5699 5697 5695 5693 5691 5689
5706 5706 5706 5706 5706 5706 5706 5707 5707 5707 5708 5708 5709 5710 5710 5710 5711 5711 5711 5712 5712 5712 5713 5713 5713 5713 5713 5712 5712 5710 5709 5708 5706 5704 5702 5700 5697 5695 5693 5691 5689 5687 5685 5683
5700 5700 5700 5700 5700 5700 5700 5700 5700 5701 5701 5702 5703 5703 5703 5704 5703 5703 5704 5704 5705 5705 5705 5706 5706 5706 5706 5706 5705 5704 5703 5701 5700 5698 5696 5694 5691 5689 5687 5685 5682 5681 5679 5677
5694 5694 5694 5694 5694 5694 5694 5695 5695 5695 5696 5696 5696 5696 5696 5697 5696 5696 5696 5697 5697 5698 5698 5699 5699 5699 5699 5699 5698 5698 5696 5695 5693 5692 5690 5688 5685 5683 5681 5679 5677 5675 5673 5672
5689 5689 5689 5689 5689 5690 5689 5689 5689 5690 5690 5690 5690 5690 5690 5690 5690 5690 5690 5690 5690 5691 5691 5692 5692 5693 5693 5692 5692 5691 5690 5689 5687 5686 5684 5682 5679 5677 5675 5673 5671 5670 5668 5666
5684 5684 5684 5685 5685 5685 5684 5684 5684 5684 5685 5685 5685 5684 5684 5684 5684 5684 5684 5684 5684 5684 5685 5686 5686 5686 5686 5686 5686 5685 5684 5683 5681 5679 5677 5676 5673 5672 5670 5668 5666 5664 5662 5660
5679 5680 5680 5680 5680 5680 5680 5679 5679 5679 5679 5680 5679 5679 5679 5678 5679 5679 5679 5679 5679 5679 5679 5680 5680 5680 5680 5680 5680 5679 5678 5676 5675 5673 5671 5669 5668 5666 5664 5662 5660 5659 5657 5654
5675 5676 5675 5675 5676 5676 5676 5675 5675 5674 5674 5674 5674 5674 5674 5673 5673 5673 5674 5674 5674 5674 5674 5674 5674 5674 5674 5674 5673 5673 5672 5670 5669 5667 5665 5664 5662 5660 5658 5656 5655 5653 5651 5649
Wind_Speed
27 26 25 25 25 24 24 23 23 22 22 20 19 20 20 20 20 19 20 20 21 21 21 21 21 21 21 21 21 21 21 21 20 19 20 20 19 19 19 19 19 20 19 19
27 27 27 26 25 25 25 24 23 23 23 21 21 22 22 22 22 21 20 21 22 22 23 22 22 22 22 23 23 22 21 21 20 20 21 21 21 20 20 20 20 20 19 19
30 29 29 28 25 25 25 26 24 24 24 23 23 23 23 24 23 22 21 21 22 23 23 23 23 23 24 24 24 23 23 22 22 21 21 21 22 21 22 22 21 21 21 21
30 30 32 29 27 26 26 26 25 25 24 25 25 25 24 25 23 23 23 23 23 24 24 23 23 23 24 24 24 23 23 23 22 22 22 22 22 23 23 23 23 23 22 22
30 31 31 30 28 27 27 26 26 27 26 25 25 25 24 24 25 25 24 23 24 25 25 24 24 25 25 24 24 24 23 23 23 23 24 24 24 24 24 24 24 24 23 23
31 31 31 29 29 27 27 27 27 27 28 27 27 26 24 24 25 26 26 25 26 26 26 24 24 25 24 24 24 24 24 24 24 24 24 24 25 25 24 24 24 24 23 23
31 31 31 30 29 27 28 28 27 27 27 28 28 28 27 27 25 25 26 27 28 28 26 25 25 25 25 25 25 25 24 24 24 25 25 25 25 24 24 24 24 23 23 23
31 32 31 30 29 28 28 28 27 27 28 28 28 28 28 28 28 27 27 28 28 28 28 27 26 26 25 25 25 25 25 25 25 25 25 25 25 25 25 25 24 24 24 24
31 32 31 31 30 29 28 29 29 29 28 28 28 28 29 29 29 29 29 29 29 28 29 28 27 27 26 25 25 25 25 25 25 25 25 26 26 25 26 25 25 25 25 24
29 30 30 30 30 29 29 29 29 29 28 29 28 29 29 28 28 29 29 29 30 30 29 28 26 26 26 25 25 24 25 25 26 26 26 26 26 25 25 25 26 26 26 26
29 29 29 29 29 29 30 30 30 30 29 28 29 28 28 28 28 29 29 28 29 30 29 28 27 26 26 25 25 25 26 26 26 27 27 26 26 26 26 25 25 25 25 25
28 28 29 28 30 30 30 30 31 31 31 30 29 29 28 29 28 28 28 28 28 28 27 26 26 25 25 25 25 25 25 26 26 26 26 25 25 25 25 25 24 24 24 24
28 28 28 29 29 30 30 30 30 31 31 31 30 28 28 29 29 29 29 28 28 27 27 26 25 24 24 24 24 24 24 24 25 25 24 24 24 24 24 24 23 23 23 23
28 28 27 28 29 30 30 29 29 30 31 30 30 29 29 29 29 29 29 28 28 27 26 25 24 23 23 23 23 24 24 23 23 23 23 23 23 23 22 22 23 22 23 23
28 28 28 27 28 29 29 28 28 29 30 30 29 29 29 29 29 29 28 28 28 27 26 25 25 23 23 23 22 23 23 23 23 24 23 23 23 22 23 23 23 23 23 22
27 27 28 28 27 27 28 29 29 29 30 31 30 29 29 29 29 28 27 27 27 26 25 24 24 23 23 22 22 22 23 24 24 24 24 24 24 24 24 24 25 24 23 22
27 27 27 27 26 26 27 28 29 29 29 30 30 29 29 29 29 28 27 27 26 25 25 24 22 21 21 21 22 22 23 23 24 24 24 24 25 25 25 25 24 22 21 21
26 27 28 27 27 27 27 28 28 28 28 29 29 29 29 29 28 27 26 26 26 25 24 23 22 22 22 22 22 22 22 23 23 23 24 24 24 25 25 25 24 22 22 20
25 26 26 26 26 25 25 25 26 26 25 25 26 27 27 27 26 25 25 26 25 24 23 23 22 22 22 22 23 23 23 23 23 23 24 24 23 23 22 22 21 21 21 21
23 23 24 24 24 23 22 23 24 25 25 24 24 24 25 25 25 25 25 25 24 24 23 22 22 22 22 22 23 22 22 22 23 23 23 23 23 22 22 22 22 21 21 20
21 21 21 21 21 21 21 21 22 23 24 24 23 23 23 23 24 24 24 23 23 23 22 22 22 21 21 22 22 22 22 22 22 22 22 22 22 22 22 22 22 21 21 20
19 19 20 20 19 19 19 20 21 21 21 22 21 22 22 22 22 23 23 23 23 22 22 22 21 21 22 22 22 21 21 21 22 22 21 21 21 21 20 20 20 19 19 19
18 18 18 18 18 17 17 18 19 20 20 20 20 20 21 21 20 21 21 22 22 22 22 22 22 22 22 22 21 21 21 21 21 21 20 20 20 20 20 19 18 18 18 18
16 17 17 17 17 17 18 18 19 19 19 19 19 20 20 20 19 19 19 20 21 21 21 21 21 21 20 20 20 20 20 20 20 20 20 20 20 20 19 19 18 18 18 18
15 16 16 17 17 17 17 18 17 17 17 17 18 19 19 18 18 18 18 19 19 19 19 19 19 19 19 19 19 20 19 19 20 20 20 19 20 19 18 18 18 18 18 18
14 15 15 16 16 16 16 16 17 17 16 16 17 16 16 17 18 18 18 18 18 17 17 18 19 18 19 19 19 19 19 19 19 19 19 19 19 19 18 18 17 17 17 18
13 13 14 14 15 16 16 16 16 16 16 16 15 15 15 16 16 17 17 17 17 17 17 18 19 19 19 19 19 19 19 18 19 19 19 19 19 19 18 18 18 17 18 19
Wind_Direction
253 253 252 252 251 252 254 256 259 263 266 269 274 279 281 283 283 288 294 295 297 299 302 302 302 302 302 302 302 301 299 298 296 292 291 291 291 291 291 292 291 290 289 288
252 251 252 252 251 252 253 255 257 262 264 267 272 276 278 280 281 284 291 292 294 297 299 300 300 301 301 301 300 299 298 297 294 292 291 291 289 288 288 288 288 288 289 289
252 250 250 251 252 254 254 256 258 261 262 265 268 272 274 277 280 283 289 291 295 294 294 297 298 300 301 300 300 298 298 297 295 293 293 290 288 286 286 288 287 288 289 289
254 252 249 252 254 254 253 256 257 260 263 264 266 269 272 276 279 282 286 289 292 292 290 292 294 297 299 299 298 297 297 296 295 295 294 293 290 288 288 288 287 287 287 288
256 255 254 252 254 253 253 256 257 257 261 262 265 269 274 277 279 280 284 289 291 292 290 291 292 294 296 296 294 294 295 295 295 293 293 293 293 291 290 289 288 285 285 286
257 258 257 256 256 255 255 257 258 259 258 261 263 266 272 276 279 281 284 287 291 292 288 289 291 293 295 295 294 293 292 292 292 292 293 294 293 291 290 290 289 286 285 284
256 259 259 260 259 258 258 259 259 260 260 262 264 268 272 274 276 280 283 286 288 290 288 288 289 291 293 294 293 292 292 291 291 292 293 292 291 290 289 289 288 287 286 285
253 257 259 260 259 259 260 260 259 260 261 263 267 270 272 274 275 277 279 282 286 287 287 288 289 291 291 291 291 291 291 291 292 292 291 290 290 290 290 288 287 286 286 285
254 257 261 261 259 261 261 261 260 260 260 260 263 267 269 272 276 277 278 280 283 285 288 289 291 291 289 288 290 290 289 289 290 290 290 290 290 290 290 287 286 286 286 284
254 256 259 260 259 261 263 262 261 260 261 260 262 266 269 271 273 275 277 279 282 284 287 288 287 287 287 288 289 289 289 289 289 289 290 289 288 288 288 288 286 284 284 284
255 256 258 260 258 262 262 261 261 260 260 264 264 267 269 270 272 275 277 277 281 284 286 287 286 287 289 289 290 289 288 288 288 287 288 289 287 286 286 287 288 287 284 284
255 258 261 260 260 261 262 261 261 260 261 264 267 268 271 271 272 274 276 278 281 283 285 285 286 286 287 289 291 290 289 288 289 290 289 290 290 291 290 289 288 287 285 284
261 263 264 263 264 262 262 261 262 263 264 265 265 268 270 271 272 274 276 277 280 282 283 284 285 286 287 287 289 290 290 291 291 292 294 293 292 292 293 291 288 287 286 285
262 265 266 266 268 266 263 263 264 264 265 266 265 267 269 271 273 276 277 276 277 278 280 281 282 284 285 286 287 289 290 291 292 293 293 293 292 292 291 291 290 287 285 284
263 266 267 268 268 268 265 264 266 266 264 265 265 267 269 272 273 275 275 276 275 276 278 278 281 280 281 284 286 288 289 291 292 291 290 290 292 291 290 291 291 288 286 285
265 266 267 267 267 269 268 266 267 267 265 265 265 267 269 271 272 273 274 274 275 276 277 277 277 278 281 284 285 288 290 291 291 290 290 289 290 291 291 290 290 289 288 286
265 268 268 267 267 268 267 268 269 268 265 265 265 266 268 270 271 271 271 272 274 274 273 274 276 278 281 283 285 288 291 293 293 293 292 291 290 290 290 291 290 289 290 289
264 266 267 267 267 269 269 269 269 268 267 266 265 266 267 268 269 270 270 270 272 272 271 271 274 276 280 282 285 288 290 292 294 295 296 295 294 293 292 291 291 292 292 289
265 265 265 265 266 267 269 268 268 267 266 265 266 266 268 268 268 270 270 269 269 270 273 273 274 275 277 281 284 286 288 290 293 295 296 297 298 298 297 296 295 295 294 291
267 267 267 265 265 266 266 266 267 267 267 266 266 268 269 269 268 268 271 270 269 269 272 273 272 273 276 280 284 285 287 289 291 294 297 299 299 299 299 301 298 296 296 296
267 267 268 267 267 267 267 267 267 268 267 265 264 266 268 271 270 269 269 268 267 268 269 270 272 274 276 280 282 284 286 288 291 294 296 298 300 301 301 299 298 296 295 296
266 268 269 269 269 271 271 269 268 269 267 267 266 266 268 271 271 270 269 268 267 267 268 269 271 273 276 278 281 283 285 286 289 293 296 297 300 302 303 302 299 298 298 298
267 267 267 269 271 273 272 270 269 270 270 269 269 270 271 271 271 272 273 271 269 268 267 267 269 272 275 277 279 280 284 287 289 294 297 299 300 301 302 302 302 302 301 300
267 266 267 268 267 269 270 269 269 270 271 271 270 271 271 271 270 271 272 272 272 270 268 267 267 269 273 275 277 280 285 288 291 293 297 299 301 301 300 300 300 300 300 300
267 265 265 267 268 270 272 271 269 270 271 271 272 272 271 270 268 267 268 271 272 269 265 264 266 269 271 275 278 282 285 288 291 293 295 298 299 299 298 298 298 298 298 300
265 267 270 270 268 270 273 273 272 273 273 273 272 271 269 267 268 268 268 271 273 271 267 265 266 269 272 275 279 283 286 288 291 294 296 297 297 297 296 294 294 297 300 301
265 266 267 267 269 272 273 275 275 274 274 273 272 270 268 269 270 269 269 271 271 270 268 267 269 270 271 273 276 281 284 286 289 291 292 295 296 296 294 293 294 296 299 300